Regional Weather Roundup
Issued by NWS

Home | Current Version | Previous Version | Text Only | Print | Product List | Glossary On
Versions: 1 2 3 4 5 6 7 8 9 10 11 12 13 14 15 16 17 18 19 20 21 22 23 24 25 26 27 28 29 30 31 32 33 34 35 36 37 38 39 40 41 42 43 44 45 46 47 48 49 50
000
ASUS42 KFFC 261403
RWRGA
WEATHER ROUNDUP FOR GEORGIA
NATIONAL WEATHER SERVICE PEACHTREE CITY GA
1000 AM EDT SUN APR 26 2015

NOTE: "FAIR" INDICATES FEW OR NO CLOUDS BELOW 12,000 FEET WITH NO
SIGNIFICANT WEATHER AND/OR OBSTRUCTIONS TO VISIBILITY.

* = USE WITH CAUTION. THE STATIONS MARKED WITH AN ASTERISK MAY NOT
REPORT WEATHER SUCH AS PRECIPITATION, FOG, OR THUNDER AND ARE NOT
QUALITY CONTROLLED BY NWS.

THE REMARK "TC" DENOTES TEMPERATURE READING IN DEGREES CELSIUS.

GAZ001>058-261500-
NORTH GEORGIA

CITY           SKY/WX    TMP DP  RH WIND       PRES   REMARKS
ATLANTA        PTSUNNY   70  63  78 W9G17     29.70S
ATHENS         PTSUNNY   73  64  73 W7        29.66F
CHAMBLEE       CLOUDY    69  64  84 W9        29.70R
PEACHTREE CITY CLOUDY    68  64  87 W6        29.73R
ROME           PTSUNNY   69  65  86 SW7       29.69R
WEST ATLANTA   MOSUNNY   70  63  78 W10       29.70S
GAINESVILLE    SUNNY     70  61  73 W15G21    29.69R
CARTERSVILLE   CLOUDY    69  63  81 VRB3      29.70S


CITY           SKY/WX    TMP DP  RH WIND       PRES   REMARKS
DALTON*        SUNNY     70  63  78 W3        29.69S
LAWRENCEVILLE* PTSUNNY   70  59  68 W12G17    29.68S
MARIETTA       CLOUDY    71  65  83 W10       29.70R
KENNESAW*      PTSUNNY   66  63  88 W12       29.71R
BLAIRSVILLE*     N/A     67  33  28 NW5       29.70R
$$

GAZ059>098-102>109-261500-
CENTRAL GEORGIA

CITY           SKY/WX    TMP DP  RH WIND       PRES   REMARKS
AUGUSTA-BUSH   MOSUNNY   72  65  78 W13G18    29.66S
AUGUSTA-DANIEL PTSUNNY   72  64  76 VRB5      29.67S
COLUMBUS       PTSUNNY   71  64  78 W6        29.73S
MACON          PTSUNNY   70  64  81 NW9       29.71F
ROBINS AFB     PTSUNNY   71  65  81 NW10      29.71F


CITY           SKY/WX    TMP DP  RH WIND       PRES   REMARKS
LAGRANGE*      CLOUDY    72  68  87 NW10      29.74S
SYLVANIA*      MOSUNNY   72  68  86 W12       29.69S
MILLEDGEVILLE* PTSUNNY   70  68  94 W5        29.70S
$$

GAZ099>101-110>166-261500-
SOUTH GEORGIA

CITY           SKY/WX    TMP DP  RH WIND       PRES   REMARKS
SAVANNAH       MOSUNNY   72  66  81 W16       29.69S
VALDOSTA       MOSUNNY   77  68  73 VRB5      29.77R
ALMA           SUNNY     73  65  75 W12       29.73S
ST SIMONS      SUNNY     75  66  73 W13       29.72S
FT STEWART     SUNNY     74  66  76 W10       29.68F
ALBANY         MOSUNNY   72  66  81 W8        29.77S
HUNTER AFB     SUNNY     74  68  82 W14       29.67S
MOODY AFB      MOSUNNY   76  65  67 W10       29.75S
BRUNSWICK      SUNNY     77  64  65 W13       29.73S


CITY           SKY/WX    TMP DP  RH WIND       PRES   REMARKS
BAINBRIDGE*    MOSUNNY   79  72  78 NW9       29.77R
MOULTRIE*      SUNNY     73  68  83 W7        29.77S
VIDALIA*       PTSUNNY   70  66  88 W7        29.72S
WAYCROSS*      SUNNY     78  70  75 W10       29.73F
DOUGLAS*       SUNNY     75  66  73 W8        29.75S
$$


USA.gov is the U.S. government's official web portal to all federal, state and local government web resources and services.